Location: Grandview
(34.8900°N, 117.1058°W)
Time: 22:12:59
(UTC-07:00)

Tiangong 2 - Pass Details

Date: 08 October 2017
Orbit: 388 x 392 km, 42.8° (Epoch: 19 October)

Event Time Altitude Azimuth Distance (km) Brightness Sun altitude
Exits shadow 05:55:34 19° 256° (WSW) 990 2.5 -11.7°
Maximum altitude 05:57:40 64° 334° (NNW) 434 1.2 -11.3°
Drops below altitude 10° 06:00:51 10° 57° (ENE) 1,421 4.9 -10.7°
Sets 06:02:57 0° 61° (ENE) 2,279 6.1 -10.2°
